Time,TemperatureF,DewpointF,PressureIn,WindDirection,WindDirectionDegrees,WindSpeedMPH,WindSpeedGustMPH,Humidity,HourlyPrecipIn,Conditions,Clouds,dailyrainin,SoftwareType,DateUTC
2013-08-15 00:00:00,51.4,49.9,29.85,South,190,0.6,1.6,94,0.00,,,0.00,WSDL version 420,2013-08-15 04:00:00,
2013-08-15 00:05:00,51.4,49.9,29.88,SW,218,0.8,2.7,94,-99.99,,,-99.99,WSDL version 420,2013-08-15 04:05:00,
2013-08-15 00:10:00,51.4,49.9,29.88,SSW,203,0.8,2.7,94,0.00,,,0.00,WSDL version 420,2013-08-15 04:10:00,
2013-08-15 00:15:00,51.2,49.9,29.88,SSW,203,1.2,2.2,96,0.00,,,0.00,WSDL version 420,2013-08-15 04:15:00,
2013-08-15 00:22:00,51.0,49.6,29.85,SW,233,2.1,2.7,96,0.00,,,0.00,WSDL version 420,2013-08-15 04:22:00,
2013-08-15 00:27:00,51.0,49.8,29.85,SW,231,1.4,2.7,96,0.00,,,0.00,WSDL version 420,2013-08-15 04:27:00,
2013-08-15 00:32:00,51.1,49.9,29.88,WSW,248,0.4,2.9,96,0.00,,,0.00,WSDL version 420,2013-08-15 04:32:00,
2013-08-15 00:37:00,51.1,49.9,29.88,South,186,1.9,3.4,96,0.00,,,0.00,WSDL version 420,2013-08-15 04:37:00,
2013-08-15 00:42:00,50.9,49.7,29.88,WSW,254,0.6,3.4,96,0.00,,,0.00,WSDL version 420,2013-08-15 04:42:00,
2013-08-15 00:47:00,50.9,49.7,29.88,SW,235,1.8,2.7,96,0.00,,,0.00,WSDL version 420,2013-08-15 04:47:00,
2013-08-15 00:52:00,50.9,49.7,29.88,SW,225,0.5,2.5,96,-99.99,,,-99.99,WSDL version 420,2013-08-15 04:52:00,
2013-08-15 00:57:00,50.8,49.6,29.88,SW,214,0.3,2.7,96,0.00,,,0.00,WSDL version 420,2013-08-15 04:57:00,
2013-08-15 01:02:00,50.7,49.5,29.88,SW,219,1.0,2.7,96,-99.99,,,-99.99,WSDL version 420,2013-08-15 05:02:00,
2013-08-15 01:07:00,50.5,49.3,29.88,SSW,208,1.0,2.7,96,0.00,,,0.00,WSDL version 420,2013-08-15 05:07:00,
2013-08-15 01:12:00,50.4,49.2,29.88,SSW,211,0.0,2.5,96,0.00,,,0.00,WSDL version 420,2013-08-15 05:12:00,
2013-08-15 01:17:00,50.3,49.1,29.88,SSW,197,1.8,2.5,96,0.00,,,0.00,WSDL version 420,2013-08-15 05:17:00,
2013-08-15 01:22:00,50.1,48.9,29.88,SSW,208,1.1,2.7,96,0.00,,,0.00,WSDL version 420,2013-08-15 05:22:00,
2013-08-15 01:27:00,50.0,48.8,29.88,SW,215,0.9,2.7,96,0.00,,,0.00,WSDL version 420,2013-08-15 05:27:00,
2013-08-15 01:32:00,50.1,49.2,29.88,SSW,196,1.1,2.2,97,-99.99,,,-99.99,WSDL version 420,2013-08-15 05:32:00,
2013-08-15 01:37:00,50.0,49.1,29.88,SW,219,1.0,2.2,97,0.00,,,0.00,WSDL version 420,2013-08-15 05:37:00,
2013-08-15 01:42:00,50.0,49.1,29.88,SW,217,1.3,2.2,97,0.00,,,0.00,WSDL version 420,2013-08-15 05:42:00,
2013-08-15 01:47:00,50.1,49.2,29.88,SW,216,1.6,2.7,97,0.00,,,0.00,WSDL version 420,2013-08-15 05:47:00,
2013-08-15 01:52:00,50.1,49.2,29.88,SW,225,1.9,3.1,97,0.00,,,0.00,WSDL version 420,2013-08-15 05:52:00,
2013-08-15 01:57:00,50.0,49.1,29.88,SW,229,2.4,3.8,97,0.00,,,0.00,WSDL version 420,2013-08-15 05:57:00,
2013-08-15 02:02:00,50.2,49.6,29.88,SW,214,1.6,4.0,98,0.00,,,0.00,WSDL version 420,2013-08-15 06:02:00,
2013-08-15 02:07:00,50.2,49.6,29.91,SSW,196,2.0,4.0,98,0.00,,,0.00,WSDL version 420,2013-08-15 06:07:00,
2013-08-15 02:12:00,50.2,49.5,29.91,SSW,203,0.6,2.9,97,0.00,,,0.00,WSDL version 420,2013-08-15 06:12:00,
2013-08-15 02:17:00,50.1,49.2,29.91,SSW,203,1.7,3.4,97,-99.99,,,-99.99,WSDL version 420,2013-08-15 06:17:00,
2013-08-15 02:22:00,50.0,49.2,29.91,SSW,206,2.2,3.8,98,0.00,,,0.00,WSDL version 420,2013-08-15 06:22:00,
2013-08-15 02:27:00,50.2,49.6,29.91,SW,218,2.0,3.8,98,0.00,,,0.00,WSDL version 420,2013-08-15 06:27:00,
2013-08-15 02:32:00,50.2,49.6,29.91,SSW,206,1.3,3.8,98,0.00,,,0.00,WSDL version 420,2013-08-15 06:32:00,
2013-08-15 02:37:00,50.0,49.4,29.91,SW,225,0.9,2.9,98,-99.99,,,-99.99,WSDL version 420,2013-08-15 06:37:00,
2013-08-15 02:42:00,50.0,49.4,29.91,SW,225,1.2,3.1,98,0.00,,,0.00,WSDL version 420,2013-08-15 06:42:00,
2013-08-15 02:47:00,50.0,49.4,29.91,SSW,203,2.0,3.6,98,0.00,,,0.00,WSDL version 420,2013-08-15 06:47:00,
2013-08-15 02:52:00,50.2,49.6,29.91,SW,221,1.2,3.6,98,-99.99,,,-99.99,WSDL version 420,2013-08-15 06:52:00,
2013-08-15 02:57:00,50.3,49.6,29.91,SSW,208,1.8,2.9,98,0.00,,,0.00,WSDL version 420,2013-08-15 06:57:00,
2013-08-15 03:02:00,50.6,50.0,29.91,SSE,158,2.4,4.3,98,0.00,,,0.00,WSDL version 420,2013-08-15 07:02:00,
2013-08-15 03:07:00,50.9,50.0,29.91,SW,236,2.5,4.7,97,0.00,,,0.00,WSDL version 420,2013-08-15 07:07:00,
2013-08-15 03:12:00,51.1,50.2,29.91,SSW,212,1.6,4.7,97,0.00,,,0.00,WSDL version 420,2013-08-15 07:12:00,
2013-08-15 03:17:00,51.3,50.1,29.91,SSW,208,1.3,3.8,96,0.00,,,0.00,WSDL version 420,2013-08-15 07:17:00,
2013-08-15 03:22:00,51.3,49.8,29.91,SW,214,2.3,3.8,94,0.00,,,0.00,WSDL version 420,2013-08-15 07:22:00,
2013-08-15 03:27:00,51.1,49.6,29.91,SW,221,3.1,4.9,94,0.00,,,0.00,WSDL version 420,2013-08-15 07:27:00,
2013-08-15 03:32:00,51.2,49.6,29.91,South,191,1.6,4.9,94,-99.99,,,-99.99,WSDL version 420,2013-08-15 07:32:00,
2013-08-15 03:37:00,50.9,49.0,29.91,SW,222,0.4,2.9,93,0.00,,,0.00,WSDL version 420,2013-08-15 07:37:00,
2013-08-15 03:42:00,50.7,48.8,29.91,WSW,241,0.5,2.9,93,0.00,,,0.00,WSDL version 420,2013-08-15 07:42:00,
2013-08-15 03:47:00,50.3,48.5,29.91,South,183,0.5,2.9,93,0.00,,,0.00,WSDL version 420,2013-08-15 07:47:00,
2013-08-15 03:52:00,50.1,48.2,29.91,SSW,211,1.1,2.5,93,0.00,,,0.00,WSDL version 420,2013-08-15 07:52:00,
2013-08-15 03:57:00,49.9,48.3,29.91,SSW,210,0.8,2.5,94,0.00,,,0.00,WSDL version 420,2013-08-15 07:57:00,
2013-08-15 04:02:00,49.7,48.2,29.91,SW,225,0.6,3.1,94,0.00,,,0.00,WSDL version 420,2013-08-15 08:02:00,
2013-08-15 04:07:00,49.6,48.1,29.91,SW,221,1.6,3.1,94,0.00,,,0.00,WSDL version 420,2013-08-15 08:07:00,
2013-08-15 04:12:00,49.5,47.9,29.91,SSW,212,1.2,2.7,94,0.00,,,0.00,WSDL version 420,2013-08-15 08:12:00,
2013-08-15 04:20:00,49.1,47.9,29.94,WSW,248,2.2,3.1,96,0.00,,,0.00,WSDL version 420,2013-08-15 08:20:00,
2013-08-15 04:25:00,49.1,47.9,29.94,WSW,257,2.2,4.0,96,0.00,,,0.00,WSDL version 420,2013-08-15 08:25:00,
2013-08-15 04:30:00,49.0,47.8,29.94,SSW,212,1.9,4.0,96,0.00,,,0.00,WSDL version 420,2013-08-15 08:30:00,
2013-08-15 04:35:00,49.1,47.9,29.91,SSW,196,1.6,4.0,96,0.00,,,0.00,WSDL version 420,2013-08-15 08:35:00,
2013-08-15 04:40:00,49.1,47.9,29.91,South,169,1.8,4.0,96,0.00,,,0.00,WSDL version 420,2013-08-15 08:40:00,
2013-08-15 04:45:00,49.3,48.4,29.91,South,177,2.9,4.5,97,0.00,,,0.00,WSDL version 420,2013-08-15 08:45:00,
2013-08-15 04:50:00,49.7,48.8,29.91,SSW,203,1.6,5.6,97,0.00,,,0.00,WSDL version 420,2013-08-15 08:50:00,
2013-08-15 04:55:00,50.2,49.3,29.91,SW,233,3.0,5.6,97,0.00,,,0.00,WSDL version 420,2013-08-15 08:55:00,
2013-08-15 05:00:00,50.5,49.6,29.91,South,184,2.9,5.6,97,0.00,,,0.00,WSDL version 420,2013-08-15 09:00:00,
2013-08-15 05:05:00,51.0,49.8,29.88,SSW,209,1.5,5.6,96,0.00,,,0.00,WSDL version 420,2013-08-15 09:05:00,
2013-08-15 05:10:00,51.1,49.5,29.88,SSE,150,2.4,4.3,94,0.00,,,0.00,WSDL version 420,2013-08-15 09:10:00,
2013-08-15 05:15:00,50.7,48.8,29.88,South,169,2.3,4.3,93,0.00,,,0.00,WSDL version 420,2013-08-15 09:15:00,
2013-08-15 05:20:00,50.4,48.6,29.91,South,191,1.8,4.3,93,0.00,,,0.00,WSDL version 420,2013-08-15 09:20:00,
2013-08-15 05:25:00,50.8,48.8,29.91,SSE,158,3.3,5.6,93,0.00,,,0.00,WSDL version 420,2013-08-15 09:25:00,
2013-08-15 05:30:00,50.9,48.7,29.91,SE,126,2.7,5.6,92,0.00,,,0.00,WSDL version 420,2013-08-15 09:30:00,
2013-08-15 05:35:00,50.9,48.6,29.91,South,172,2.6,6.0,91,0.00,,,0.00,WSDL version 420,2013-08-15 09:35:00,
2013-08-15 05:40:00,50.9,48.4,29.91,SW,233,0.7,6.0,91,-99.99,,,-99.99,WSDL version 420,2013-08-15 09:40:00,
2013-08-15 05:45:00,50.9,48.4,29.91,West,270,3.1,8.7,91,0.00,,,0.00,WSDL version 420,2013-08-15 09:45:00,
2013-08-15 05:50:00,50.7,48.2,29.94,SSW,203,3.3,8.7,91,0.00,,,0.00,WSDL version 420,2013-08-15 09:50:00,
2013-08-15 05:55:00,50.8,48.3,29.94,South,183,2.8,6.7,91,0.00,,,0.00,WSDL version 420,2013-08-15 09:55:00,
2013-08-15 06:00:00,50.9,48.4,29.94,SSE,165,2.4,7.6,91,0.00,,,0.00,WSDL version 420,2013-08-15 10:00:00,
2013-08-15 06:05:00,50.9,48.2,29.94,SSW,206,2.1,7.6,90,0.00,,,0.00,WSDL version 420,2013-08-15 10:05:00,
2013-08-15 06:10:00,50.4,47.6,29.94,South,180,1.0,5.4,90,-99.99,,,-99.99,WSDL version 420,2013-08-15 10:10:00,
2013-08-15 06:15:00,50.1,47.3,29.94,ESE,119,1.8,5.4,90,0.00,,,0.00,WSDL version 420,2013-08-15 10:15:00,
2013-08-15 06:20:00,49.7,46.9,29.97,WNW,293,1.1,2.9,90,0.00,,,0.00,WSDL version 420,2013-08-15 10:20:00,
2013-08-15 06:25:00,49.6,47.2,29.97,SSW,193,0.7,2.9,91,0.00,,,0.00,WSDL version 420,2013-08-15 10:25:00,
2013-08-15 06:30:00,49.5,47.2,29.97,ESE,104,1.6,3.4,93,-99.99,,,-99.99,WSDL version 420,2013-08-15 10:30:00,
2013-08-15 06:35:00,49.7,47.9,29.94,SSE,158,2.7,3.6,93,0.00,,,0.00,WSDL version 420,2013-08-15 10:35:00,
2013-08-15 06:40:00,50.4,48.5,29.94,East,80,2.7,4.3,93,0.00,,,0.00,WSDL version 420,2013-08-15 10:40:00,
2013-08-15 06:45:00,50.5,48.6,29.94,ENE,68,1.2,4.3,93,0.00,,,0.00,WSDL version 420,2013-08-15 10:45:00,
2013-08-15 06:50:00,50.4,48.6,29.94,ENE,68,2.2,3.6,94,0.00,,,0.00,WSDL version 420,2013-08-15 10:50:00,
2013-08-15 06:55:00,50.6,49.1,29.94,ESE,106,2.6,3.6,94,0.00,,,0.00,WSDL version 420,2013-08-15 10:55:00,
2013-08-15 07:00:00,51.1,49.5,29.94,East,80,0.7,3.4,94,0.00,,,0.00,WSDL version 420,2013-08-15 11:00:00,
2013-08-15 07:05:00,51.3,49.9,29.97,ENE,68,0.8,2.7,94,0.00,,,0.00,WSDL version 420,2013-08-15 11:05:00,
2013-08-15 07:10:00,51.6,50.1,29.97,East,90,1.9,3.1,94,0.00,,,0.00,WSDL version 420,2013-08-15 11:10:00,
2013-08-15 07:15:00,52.2,50.6,29.97,East,90,1.5,3.1,94,0.00,,,0.00,WSDL version 420,2013-08-15 11:15:00,
2013-08-15 07:20:00,52.5,51.0,29.97,ESE,105,2.3,4.0,94,0.00,,,0.00,WSDL version 420,2013-08-15 11:20:00,
2013-08-15 07:25:00,52.9,51.2,29.97,NE,51,2.0,4.0,93,0.00,,,0.00,WSDL version 420,2013-08-15 11:25:00,
2013-08-15 07:30:00,53.3,51.5,29.97,ENE,62,1.4,3.4,93,0.00,,,0.00,WSDL version 420,2013-08-15 11:30:00,
2013-08-15 07:35:00,53.6,51.7,29.97,NE,49,1.9,3.1,93,0.00,,,0.00,WSDL version 420,2013-08-15 11:35:00,
2013-08-15 07:40:00,53.7,52.2,29.97,SE,124,4.3,6.3,94,0.00,,,0.00,WSDL version 420,2013-08-15 11:40:00,
2013-08-15 07:45:00,53.8,51.4,29.97,ESE,113,5.0,7.2,91,0.00,,,0.00,WSDL version 420,2013-08-15 11:45:00,
2013-08-15 07:50:00,53.9,50.6,29.94,East,94,4.4,7.2,88,0.00,,,0.00,WSDL version 420,2013-08-15 11:50:00,
2013-08-15 07:56:00,54.2,50.7,29.94,ESE,103,4.3,6.3,88,0.00,,,0.00,WSDL version 420,2013-08-15 11:56:00,
2013-08-15 08:01:00,54.9,50.7,29.94,East,84,3.7,6.5,86,0.00,,,0.00,WSDL version 420,2013-08-15 12:01:00,
2013-08-15 08:06:00,54.9,50.6,29.97,ESE,116,4.3,6.5,86,0.00,,,0.00,WSDL version 420,2013-08-15 12:06:00,
2013-08-15 08:11:00,54.9,50.2,29.97,ESE,107,5.5,8.7,83,0.00,,,0.00,WSDL version 420,2013-08-15 12:11:00,
2013-08-15 08:16:00,54.9,50.0,29.97,ESE,119,4.7,8.7,83,0.00,,,0.00,WSDL version 420,2013-08-15 12:16:00,
2013-08-15 08:23:00,55.3,50.5,29.94,East,83,3.8,7.6,83,0.00,,,0.00,WSDL version 420,2013-08-15 12:23:00,
2013-08-15 08:28:00,55.5,50.8,29.94,East,96,4.3,7.6,84,0.00,,,0.00,WSDL version 420,2013-08-15 12:28:00,
2013-08-15 08:33:00,55.9,51.2,29.97,ESE,106,4.1,6.3,84,0.00,,,0.00,WSDL version 420,2013-08-15 12:33:00,
2013-08-15 08:38:00,56.3,51.4,29.97,ESE,120,4.6,6.3,83,0.00,,,0.00,WSDL version 420,2013-08-15 12:38:00,
2013-08-15 08:43:00,56.5,51.2,29.97,ESE,109,4.5,8.5,81,0.00,,,0.00,WSDL version 420,2013-08-15 12:43:00,
2013-08-15 08:48:00,56.5,50.4,29.97,SE,135,4.2,8.5,80,0.00,,,0.00,WSDL version 420,2013-08-15 12:48:00,
2013-08-15 08:53:00,56.4,50.2,29.97,ESE,107,2.5,7.6,81,0.00,,,0.00,WSDL version 420,2013-08-15 12:53:00,
2013-08-15 08:58:00,56.7,50.9,29.97,ENE,68,3.3,6.5,81,0.00,,,0.00,WSDL version 420,2013-08-15 12:58:00,
2013-08-15 09:03:00,57.0,51.0,29.94,East,94,4.3,7.4,80,0.00,,,0.00,WSDL version 420,2013-08-15 13:03:00,
2013-08-15 09:08:00,57.1,51.0,29.94,ENE,60,3.9,7.4,80,0.00,,,0.00,WSDL version 420,2013-08-15 13:08:00,
2013-08-15 09:13:00,57.5,51.3,29.94,East,90,3.1,6.5,79,0.00,,,0.00,WSDL version 420,2013-08-15 13:13:00,
2013-08-15 09:18:00,57.9,51.2,30.00,ESE,108,6.3,10.3,78,0.00,,,0.00,WSDL version 420,2013-08-15 13:18:00,
2013-08-15 09:23:00,58.1,51.0,30.00,SE,135,7.9,10.3,76,0.00,,,0.00,WSDL version 420,2013-08-15 13:23:00,
2013-08-15 09:28:00,58.4,50.8,30.00,South,188,4.3,8.1,75,0.00,,,0.00,WSDL version 420,2013-08-15 13:28:00,
2013-08-15 09:33:00,58.6,50.6,29.97,South,170,2.8,7.6,75,0.00,,,0.00,WSDL version 420,2013-08-15 13:33:00,
2013-08-15 09:38:00,58.9,51.1,29.97,East,84,3.5,7.4,75,-99.99,,,-99.99,WSDL version 420,2013-08-15 13:38:00,
2013-08-15 09:43:00,59.4,51.7,29.97,SE,128,4.5,7.4,75,0.00,,,0.00,WSDL version 420,2013-08-15 13:43:00,
2013-08-15 09:48:00,59.5,50.9,29.97,ENE,68,3.8,10.3,73,0.00,,,0.00,WSDL version 420,2013-08-15 13:48:00,
2013-08-15 09:53:00,59.6,50.6,29.97,East,86,3.3,10.3,72,0.00,,,0.00,WSDL version 420,2013-08-15 13:53:00,
2013-08-15 09:58:00,60.1,51.0,29.97,East,101,5.5,6.3,71,0.00,,,0.00,WSDL version 420,2013-08-15 13:58:00,
2013-08-15 10:03:00,60.4,51.7,29.94,East,90,3.1,6.3,73,0.00,,,0.00,WSDL version 420,2013-08-15 14:03:00,
2013-08-15 10:08:00,60.5,51.7,29.94,SE,135,2.0,6.3,72,0.00,,,0.00,WSDL version 420,2013-08-15 14:08:00,
2013-08-15 10:13:00,60.2,51.0,29.94,SE,129,2.8,6.3,72,0.00,,,0.00,WSDL version 420,2013-08-15 14:13:00,
2013-08-15 10:19:00,60.4,51.4,29.97,ESE,120,2.7,5.6,73,0.00,,,0.00,WSDL version 420,2013-08-15 14:19:00,
2013-08-15 10:24:00,60.5,51.0,29.97,East,98,2.5,4.3,71,0.00,,,0.00,WSDL version 420,2013-08-15 14:24:00,
2013-08-15 10:29:00,60.4,49.4,29.97,ESE,113,5.6,9.4,67,0.00,,,0.00,WSDL version 420,2013-08-15 14:29:00,
2013-08-15 10:34:00,60.6,50.2,29.97,ESE,104,2.8,9.4,69,0.00,,,0.00,WSDL version 420,2013-08-15 14:34:00,
2013-08-15 10:39:00,60.7,49.9,29.97,East,90,4.3,5.4,67,0.00,,,0.00,WSDL version 420,2013-08-15 14:39:00,
2013-08-15 10:44:00,61.1,50.6,29.97,NW,318,3.1,5.4,69,0.00,,,0.00,WSDL version 420,2013-08-15 14:44:00,
2013-08-15 10:51:00,61.7,49.8,29.94,SSE,158,3.4,8.5,65,0.00,,,0.00,WSDL version 420,2013-08-15 14:51:00,
2013-08-15 10:59:00,61.7,49.8,29.94,ENE,68,1.7,6.5,65,0.00,,,0.00,WSDL version 420,2013-08-15 14:59:00,
2013-08-15 11:04:00,61.7,49.6,29.97,ESE,107,4.3,8.7,65,0.00,,,0.00,WSDL version 420,2013-08-15 15:04:00,
2013-08-15 11:09:00,61.8,49.9,29.97,NNW,332,1.8,8.7,65,0.00,,,0.00,WSDL version 420,2013-08-15 15:09:00,
2013-08-15 11:14:00,61.8,49.6,29.97,NW,323,3.0,6.5,63,0.00,,,0.00,WSDL version 420,2013-08-15 15:14:00,
2013-08-15 11:19:00,61.5,49.4,-100.00,South,171,3.0,6.3,65,0.00,,,0.00,WSDL version 420,2013-08-15 15:19:00,
2013-08-15 11:29:00,62.0,49.9,29.97,NNE,30,1.7,5.8,65,0.00,,,0.00,WSDL version 420,2013-08-15 15:29:00,
2013-08-15 11:34:00,62.6,49.9,29.97,SW,214,3.8,4.7,61,0.00,,,0.00,WSDL version 420,2013-08-15 15:34:00,
2013-08-15 11:39:00,62.7,48.3,29.97,South,185,3.1,4.9,59,0.00,,,0.00,WSDL version 420,2013-08-15 15:39:00,
2013-08-15 11:44:00,63.2,48.7,29.97,North,3,1.8,4.9,58,0.00,,,0.00,WSDL version 420,2013-08-15 15:44:00,
2013-08-15 11:49:00,63.8,48.9,29.97,SSE,149,3.3,5.4,56,0.00,,,0.00,WSDL version 420,2013-08-15 15:49:00,
2013-08-15 11:54:00,63.4,48.1,29.97,SE,140,3.3,5.4,57,0.00,,,0.00,WSDL version 420,2013-08-15 15:54:00,
2013-08-15 11:59:00,63.1,46.9,29.97,NNW,338,3.5,6.3,56,0.00,,,0.00,WSDL version 420,2013-08-15 15:59:00,
2013-08-15 12:04:00,63.5,47.6,29.97,NW,319,3.8,7.2,53,0.00,,,0.00,WSDL version 420,2013-08-15 16:04:00,
2013-08-15 12:09:00,63.6,47.3,29.97,NNW,334,4.1,7.2,56,-99.99,,,-99.99,WSDL version 420,2013-08-15 16:09:00,
2013-08-15 12:14:00,63.7,47.8,29.97,East,93,4.7,8.9,57,0.00,,,0.00,WSDL version 420,2013-08-15 16:14:00,
2013-08-15 12:19:00,64.5,49.0,29.97,WNW,285,4.3,8.9,56,0.00,,,0.00,WSDL version 420,2013-08-15 16:19:00,
2013-08-15 12:26:00,63.9,45.7,29.97,SSW,206,4.2,6.5,51,0.00,,,0.00,WSDL version 420,2013-08-15 16:26:00,
2013-08-15 12:31:00,63.4,45.6,29.97,NNE,23,1.5,5.6,53,0.00,,,0.00,WSDL version 420,2013-08-15 16:31:00,
2013-08-15 12:36:00,63.4,46.6,29.97,NNE,13,2.4,5.4,56,0.00,,,0.00,WSDL version 420,2013-08-15 16:36:00,
2013-08-15 12:41:00,63.8,47.7,29.97,WNW,285,1.5,5.4,55,0.00,,,0.00,WSDL version 420,2013-08-15 16:41:00,
2013-08-15 12:46:00,63.9,46.9,29.97,NW,321,2.3,4.3,55,0.00,,,0.00,WSDL version 420,2013-08-15 16:46:00,
2013-08-15 12:51:00,63.6,46.5,29.97,NE,56,3.1,4.9,54,0.00,,,0.00,WSDL version 420,2013-08-15 16:51:00,
2013-08-15 12:56:00,63.5,46.7,29.97,North,349,2.9,4.9,56,0.00,,,0.00,WSDL version 420,2013-08-15 16:56:00,
2013-08-15 13:01:00,63.6,46.3,29.97,SE,146,0.0,4.9,55,0.00,,,0.00,WSDL version 420,2013-08-15 17:01:00,
2013-08-15 13:06:00,63.8,47.8,29.97,NE,56,3.4,4.3,56,0.00,,,0.00,WSDL version 420,2013-08-15 17:06:00,
2013-08-15 13:11:00,63.9,48.0,29.97,NE,51,3.9,4.7,57,0.00,,,0.00,WSDL version 420,2013-08-15 17:11:00,
2013-08-15 13:16:00,63.7,47.8,29.97,NE,34,1.4,4.7,56,0.00,,,0.00,WSDL version 420,2013-08-15 17:16:00,
2013-08-15 13:21:00,63.8,48.3,29.97,ESE,104,2.4,2.9,57,0.00,,,0.00,WSDL version 420,2013-08-15 17:21:00,
2013-08-15 13:31:00,64.8,49.2,29.97,SW,218,1.3,4.0,57,0.00,,,0.00,WSDL version 420,2013-08-15 17:31:00,
2013-08-15 13:36:00,65.0,48.1,29.97,SW,225,0.9,2.7,55,0.00,,,0.00,WSDL version 420,2013-08-15 17:36:00,
2013-08-15 13:41:00,64.7,47.7,29.97,ESE,113,3.1,3.1,53,0.00,,,0.00,WSDL version 420,2013-08-15 17:41:00,
2013-08-15 13:48:00,64.4,47.0,29.97,East,83,3.2,3.6,54,0.00,,,0.00,WSDL version 420,2013-08-15 17:48:00,
2013-08-15 13:53:00,64.7,48.0,29.97,NE,45,0.0,3.6,54,0.00,,,0.00,WSDL version 420,2013-08-15 17:53:00,
2013-08-15 13:58:00,64.9,48.0,29.97,ENE,68,3.6,3.8,53,0.00,,,0.00,WSDL version 420,2013-08-15 17:58:00,
2013-08-15 14:03:00,65.6,48.0,29.97,ENE,68,3.6,3.8,52,0.00,,,0.00,WSDL version 420,2013-08-15 18:03:00,
2013-08-15 14:08:00,65.1,47.4,29.97,SW,222,3.2,6.0,52,-99.99,,,-99.99,WSDL version 420,2013-08-15 18:08:00,
2013-08-15 14:13:00,64.8,47.9,29.97,WNW,293,1.6,6.0,55,0.00,,,0.00,WSDL version 420,2013-08-15 18:13:00,
2013-08-15 14:23:00,64.4,48.0,29.94,SE,135,3.2,4.9,55,0.00,,,0.00,WSDL version 420,2013-08-15 18:23:00,
2013-08-15 14:28:00,64.4,47.9,29.94,East,90,1.8,5.4,55,0.00,,,0.00,WSDL version 420,2013-08-15 18:28:00,
2013-08-15 14:33:00,64.4,48.2,29.94,East,95,1.7,5.4,56,0.00,,,0.00,WSDL version 420,2013-08-15 18:33:00,
2013-08-15 14:38:00,64.3,48.4,29.94,SE,140,2.6,3.8,56,0.00,,,0.00,WSDL version 420,2013-08-15 18:38:00,
2013-08-15 14:43:00,64.6,48.5,29.94,East,90,1.2,3.8,57,0.00,,,0.00,WSDL version 420,2013-08-15 18:43:00,
2013-08-15 14:48:00,65.5,48.7,29.94,SW,214,2.2,3.4,53,0.00,,,0.00,WSDL version 420,2013-08-15 18:48:00,
2013-08-15 14:55:00,65.6,48.5,29.94,SSE,150,2.0,4.9,54,0.00,,,0.00,WSDL version 420,2013-08-15 18:55:00,
2013-08-15 15:04:00,65.4,48.5,29.94,NE,56,1.1,4.0,54,0.00,,,0.00,WSDL version 420,2013-08-15 19:04:00,
2013-08-15 15:15:00,66.4,50.0,29.94,WSW,248,3.2,5.6,54,0.00,,,0.00,WSDL version 420,2013-08-15 19:15:00,
2013-08-15 15:20:00,66.5,48.8,29.94,NE,50,0.4,5.6,54,-99.99,,,-99.99,WSDL version 420,2013-08-15 19:20:00,
2013-08-15 15:25:00,67.0,48.1,29.94,WNW,289,2.4,6.0,53,0.00,,,0.00,WSDL version 420,2013-08-15 19:25:00,
2013-08-15 15:30:00,67.6,48.4,29.94,ENE,68,5.4,6.5,48,0.00,,,0.00,WSDL version 420,2013-08-15 19:30:00,
2013-08-15 15:40:00,66.7,46.8,29.94,South,180,2.9,6.5,49,0.00,,,0.00,WSDL version 420,2013-08-15 19:40:00,
2013-08-15 15:45:00,66.4,46.5,29.94,East,101,2.0,4.0,49,0.00,,,0.00,WSDL version 420,2013-08-15 19:45:00,
2013-08-15 15:50:00,66.5,46.9,29.94,ESE,113,2.0,2.9,49,0.00,,,0.00,WSDL version 420,2013-08-15 19:50:00,
2013-08-15 15:57:00,66.6,46.7,29.94,ESE,113,2.0,2.9,48,0.00,,,0.00,WSDL version 420,2013-08-15 19:57:00,
2013-08-15 16:02:00,66.2,46.5,29.94,North,-999,-999.0,-999.0,49,0.00,,,0.00,WSDL version 420,2013-08-15 20:02:00,
2013-08-15 16:14:00,66.6,46.3,29.94,North,-999,-999.0,-999.0,47,0.00,,,0.00,WSDL version 420,2013-08-15 20:14:00,
2013-08-15 16:19:00,66.2,46.5,29.94,North,-999,-999.0,-999.0,49,0.00,,,0.00,WSDL version 420,2013-08-15 20:19:00,
2013-08-15 16:29:00,66.4,47.9,29.94,East,90,1.6,3.6,50,0.00,,,0.00,WSDL version 420,2013-08-15 20:29:00,
2013-08-15 16:34:00,66.5,47.5,29.94,East,90,2.5,3.6,50,0.00,,,0.00,WSDL version 420,2013-08-15 20:34:00,
2013-08-15 16:39:00,66.2,46.5,29.94,ENE,68,3.1,3.6,48,0.00,,,0.00,WSDL version 420,2013-08-15 20:39:00,
2013-08-15 16:44:00,66.6,46.5,29.94,NE,45,3.4,3.4,48,0.00,,,0.00,WSDL version 420,2013-08-15 20:44:00,
2013-08-15 16:49:00,66.4,46.8,29.94,NE,45,3.4,3.4,50,0.00,,,0.00,WSDL version 420,2013-08-15 20:49:00,
2013-08-15 16:54:00,66.1,46.9,29.94,ENE,68,1.1,2.2,50,0.00,,,0.00,WSDL version 420,2013-08-15 20:54:00,
2013-08-15 16:59:00,66.6,47.6,29.94,South,180,2.5,2.5,49,0.00,,,0.00,WSDL version 420,2013-08-15 20:59:00,
2013-08-15 17:04:00,66.9,46.9,29.94,South,180,2.5,0.0,49,0.00,,,0.00,WSDL version 420,2013-08-15 21:04:00,
2013-08-15 17:09:00,66.9,47.2,29.94,South,180,2.5,0.0,49,0.00,,,0.00,WSDL version 420,2013-08-15 21:09:00,
2013-08-15 17:18:00,67.1,47.3,29.91,East,90,1.3,4.0,49,0.00,,,0.00,WSDL version 420,2013-08-15 21:18:00,
2013-08-15 17:23:00,67.1,46.6,29.91,East,90,1.3,4.0,48,0.00,,,0.00,WSDL version 420,2013-08-15 21:23:00,
2013-08-15 17:28:00,66.9,46.1,29.91,East,90,1.3,4.0,46,0.00,,,0.00,WSDL version 420,2013-08-15 21:28:00,
2013-08-15 17:33:00,66.9,45.8,29.91,North,-999,-999.0,-999.0,47,0.00,,,0.00,WSDL version 420,2013-08-15 21:33:00,
2013-08-15 17:38:00,66.7,45.0,29.91,North,-999,-999.0,-999.0,46,0.00,,,0.00,WSDL version 420,2013-08-15 21:38:00,
2013-08-15 17:48:00,66.7,45.6,29.91,North,-999,-999.0,-999.0,47,0.00,,,0.00,WSDL version 420,2013-08-15 21:48:00,
2013-08-15 17:53:00,66.4,47.4,29.91,North,-999,-999.0,-999.0,52,0.00,,,0.00,WSDL version 420,2013-08-15 21:53:00,
2013-08-15 17:58:00,66.0,46.7,29.91,North,-999,-999.0,-999.0,49,0.00,,,0.00,WSDL version 420,2013-08-15 21:58:00,
2013-08-15 18:05:00,65.9,46.7,29.91,North,-999,-999.0,-999.0,51,0.00,,,0.00,WSDL version 420,2013-08-15 22:05:00,
2013-08-15 18:15:00,65.3,46.5,29.91,North,-999,-999.0,-999.0,52,0.00,,,0.00,WSDL version 420,2013-08-15 22:15:00,
2013-08-15 18:25:00,63.4,48.8,29.94,WSW,240,2.6,2.6,60,0.00,,,0.00,WSDL version 420,2013-08-15 22:25:00,
2013-08-15 18:30:00,62.6,49.4,29.94,SW,233,1.3,2.5,63,-99.99,,,-99.99,WSDL version 420,2013-08-15 22:30:00,
2013-08-15 18:35:00,62.0,49.3,29.94,SSW,203,1.1,2.5,64,0.00,,,0.00,WSDL version 420,2013-08-15 22:35:00,
2013-08-15 18:46:00,60.5,49.1,29.94,South,171,1.5,2.2,66,0.00,,,0.00,WSDL version 420,2013-08-15 22:46:00,
2013-08-15 18:51:00,60.4,49.4,29.94,WSW,244,0.9,2.5,67,0.00,,,0.00,WSDL version 420,2013-08-15 22:51:00,
2013-08-15 18:56:00,59.9,49.2,29.94,SSW,203,0.4,2.5,69,0.00,,,0.00,WSDL version 420,2013-08-15 22:56:00,
2013-08-15 19:03:00,59.6,49.3,29.94,SSW,212,1.2,2.2,69,0.00,,,0.00,WSDL version 420,2013-08-15 23:03:00,
2013-08-15 19:13:00,58.9,49.6,29.94,SW,219,1.0,4.3,71,0.00,,,0.00,WSDL version 420,2013-08-15 23:13:00,
2013-08-15 19:18:00,58.7,49.8,29.94,SW,218,1.6,3.8,73,0.00,,,0.00,WSDL version 420,2013-08-15 23:18:00,
2013-08-15 19:23:00,58.6,49.5,29.94,South,188,1.3,2.9,72,0.00,,,0.00,WSDL version 420,2013-08-15 23:23:00,
2013-08-15 19:28:00,58.4,49.6,29.94,SW,225,1.5,2.9,73,0.00,,,0.00,WSDL version 420,2013-08-15 23:28:00,
2013-08-15 19:33:00,58.2,49.6,29.97,SW,225,1.5,2.9,73,0.00,,,0.00,WSDL version 420,2013-08-15 23:33:00,
2013-08-15 19:38:00,58.1,49.5,29.97,WSW,248,0.8,3.1,73,0.00,,,0.00,WSDL version 420,2013-08-15 23:38:00,
2013-08-15 19:43:00,58.0,49.7,29.97,SSW,211,1.7,3.1,75,0.00,,,0.00,WSDL version 420,2013-08-15 23:43:00,
2013-08-15 19:48:00,57.9,49.7,29.97,SE,135,1.3,2.5,74,0.00,,,0.00,WSDL version 420,2013-08-15 23:48:00,
2013-08-15 19:53:00,57.6,49.5,29.97,SW,219,2.6,2.7,75,0.00,,,0.00,WSDL version 420,2013-08-15 23:53:00,
2013-08-15 19:58:00,57.6,49.4,29.97,WSW,248,2.6,2.9,74,0.00,,,0.00,WSDL version 420,2013-08-15 23:58:00,
2013-08-15 20:03:00,57.4,49.4,29.97,SSW,203,2.9,2.9,75,0.00,,,0.00,WSDL version 420,2013-08-16 00:03:00,
2013-08-15 20:13:00,57.2,49.7,29.97,SW,217,1.5,3.1,76,0.00,,,0.00,WSDL version 420,2013-08-16 00:13:00,
2013-08-15 20:18:00,57.1,49.7,29.97,SW,235,1.0,2.7,76,0.00,,,0.00,WSDL version 420,2013-08-16 00:18:00,
2013-08-15 20:23:00,57.0,49.5,29.97,WSW,241,2.0,2.7,76,0.00,,,0.00,WSDL version 420,2013-08-16 00:23:00,
2013-08-15 20:28:00,56.8,49.6,29.97,SW,215,2.6,4.3,77,0.00,,,0.00,WSDL version 420,2013-08-16 00:28:00,
2013-08-15 20:33:00,56.8,49.4,29.97,SW,231,1.3,4.3,76,0.00,,,0.00,WSDL version 420,2013-08-16 00:33:00,
2013-08-15 20:38:00,56.8,49.6,29.97,SW,214,1.8,2.9,77,0.00,,,0.00,WSDL version 420,2013-08-16 00:38:00,
2013-08-15 20:43:00,56.8,49.4,29.97,WSW,239,0.9,2.9,76,-99.99,,,-99.99,WSDL version 420,2013-08-16 00:43:00,
2013-08-15 20:53:00,56.7,49.2,29.97,SW,225,2.1,2.9,76,0.00,,,0.00,WSDL version 420,2013-08-16 00:53:00,
2013-08-15 20:58:00,56.6,49.1,29.97,SW,225,0.5,2.9,76,0.00,,,0.00,WSDL version 420,2013-08-16 00:58:00,
2013-08-15 21:03:00,56.4,49.0,30.00,SW,233,0.3,2.5,76,0.00,,,0.00,WSDL version 420,2013-08-16 01:03:00,
2013-08-15 21:13:00,56.1,48.7,30.00,SW,225,1.3,3.6,76,0.00,,,0.00,WSDL version 420,2013-08-16 01:13:00,
2013-08-15 21:19:00,56.1,48.7,30.00,SW,221,1.3,3.4,76,0.00,,,0.00,WSDL version 420,2013-08-16 01:19:00,
2013-08-15 21:28:00,55.9,48.5,30.00,SW,225,1.6,3.1,76,-99.99,,,-99.99,WSDL version 420,2013-08-16 01:28:00,
2013-08-15 21:35:00,55.9,48.6,30.00,SSW,209,1.3,2.7,77,0.00,,,0.00,WSDL version 420,2013-08-16 01:35:00,
2013-08-15 21:40:00,55.9,48.8,30.00,SW,222,1.4,2.9,77,0.00,,,0.00,WSDL version 420,2013-08-16 01:40:00,
2013-08-15 21:50:00,55.8,48.7,30.00,SW,225,1.1,3.1,77,0.00,,,0.00,WSDL version 420,2013-08-16 01:50:00,
2013-08-15 21:55:00,55.6,48.5,30.00,West,266,2.1,2.9,77,0.00,,,0.00,WSDL version 420,2013-08-16 01:55:00,
2013-08-15 22:00:00,55.4,48.3,30.00,SSW,203,1.2,3.1,77,0.00,,,0.00,WSDL version 420,2013-08-16 02:00:00,
2013-08-15 22:05:00,55.2,48.6,30.00,SW,225,0.0,3.1,79,0.00,,,0.00,WSDL version 420,2013-08-16 02:05:00,
2013-08-15 22:10:00,54.8,48.7,30.00,SSW,212,1.3,2.5,81,-99.99,,,-99.99,WSDL version 420,2013-08-16 02:10:00,
2013-08-15 22:15:00,54.7,49.0,30.00,SSW,205,1.2,2.5,81,0.00,,,0.00,WSDL version 420,2013-08-16 02:15:00,
2013-08-15 22:20:00,54.8,49.1,30.00,SSW,206,1.9,2.2,81,-99.99,,,-99.99,WSDL version 420,2013-08-16 02:20:00,
2013-08-15 22:25:00,54.9,49.1,30.00,SSE,151,0.8,2.5,80,0.00,,,0.00,WSDL version 420,2013-08-16 02:25:00,
2013-08-15 22:30:00,55.0,48.9,30.00,ENE,68,0.3,2.5,80,0.00,,,0.00,WSDL version 420,2013-08-16 02:30:00,
2013-08-15 22:35:00,54.6,48.6,30.03,WSW,248,1.5,2.5,80,-99.99,,,-99.99,WSDL version 420,2013-08-16 02:35:00,
2013-08-15 22:42:00,54.5,48.7,30.03,SW,235,2.2,2.9,81,0.00,,,0.00,WSDL version 420,2013-08-16 02:42:00,
2013-08-15 22:47:00,54.6,48.9,30.03,SSW,203,1.1,2.9,81,0.00,,,0.00,WSDL version 420,2013-08-16 02:47:00,
2013-08-15 22:52:00,54.7,48.8,30.03,SSW,203,0.6,2.7,80,0.00,,,0.00,WSDL version 420,2013-08-16 02:52:00,
2013-08-15 22:57:00,54.7,49.0,30.03,SW,221,2.1,2.7,81,0.00,,,0.00,WSDL version 420,2013-08-16 02:57:00,
2013-08-15 23:02:00,54.7,49.4,30.03,SSW,208,1.4,2.5,82,0.00,,,0.00,WSDL version 420,2013-08-16 03:02:00,
2013-08-15 23:07:00,54.7,49.7,30.03,SSW,209,1.1,2.5,83,-99.99,,,-99.99,WSDL version 420,2013-08-16 03:07:00,
2013-08-15 23:12:00,54.7,50.0,30.03,SW,235,1.3,3.1,84,0.00,,,0.00,WSDL version 420,2013-08-16 03:12:00,
2013-08-15 23:17:00,54.9,49.9,30.03,SW,218,1.4,3.1,83,0.00,,,0.00,WSDL version 420,2013-08-16 03:17:00,
2013-08-15 23:22:00,55.5,50.6,30.03,SW,215,1.2,3.1,83,0.00,,,0.00,WSDL version 420,2013-08-16 03:22:00,
2013-08-15 23:27:00,56.1,50.6,30.03,South,176,1.5,3.1,81,0.00,,,0.00,WSDL version 420,2013-08-16 03:27:00,
2013-08-15 23:32:00,56.6,50.9,30.03,SE,143,2.0,4.3,81,0.00,,,0.00,WSDL version 420,2013-08-16 03:32:00,
2013-08-15 23:37:00,55.9,50.2,30.03,ESE,113,0.0,4.3,81,0.00,,,0.00,WSDL version 420,2013-08-16 03:37:00,
2013-08-15 23:42:00,54.8,49.1,30.03,ENE,68,0.0,3.1,81,0.00,,,0.00,WSDL version 420,2013-08-16 03:42:00,
2013-08-15 23:47:00,54.4,48.7,30.00,WNW,299,0.2,2.2,81,0.00,,,0.00,WSDL version 420,2013-08-16 03:47:00,
2013-08-15 23:52:00,53.8,48.2,30.00,WNW,285,1.3,2.5,81,0.00,,,0.00,WSDL version 420,2013-08-16 03:52:00,
2013-08-15 23:57:00,53.4,48.3,30.00,WSW,244,2.1,2.7,83,0.00,,,0.00,WSDL version 420,2013-08-16 03:57:00,